Tracking 35274 objects as of 11-Sep-2026
HD Live streaming from Space Station
objects crossing your sky now

NATO 3C

Track NATO 3C now!
NATO 3C is classified as:


NORAD ID: 11115
Int'l Code: 1978-106A
Launch date: November 19, 1978
Source: North Atlantic Treaty Organization (NATO)
Launch site: AIR FORCE EASTERN TEST RANGE (AFETR)
Your satellite tracking list
Your tracking list is empty




NASA's NSSDC Master Catalog

Two Line Element Set (TLE):
1 11115U 78106A   26254.07301674 -.00000186  00000-0  00000+0 0  9993
2 11115   8.9864 314.9918 0004845 319.3594  54.2061  0.98482978656062
Source of the keplerian elements: AFSPC